User: anonymous   Login
Location: Unspecified
(0.0000°N, 0.0000°E)
Time: 13:03:59
(UTC+00:00)
Language:

PLEIADES HR1 - Orbit

View from above orbital plane
View from above orbital plane
View from above satellite
View from above satellite

Ground track
Ground track

The orbit data is extracted from the following two-line orbital elements,

1 38012U 11076F   14296.16922185  .00000497  00000-0  11660-3 0  1950
2 38012 098.1845 009.3149 0001607 080.7267 279.4146 14.58573270151755
Epoch (UTC): 23 October 2014 04:03:40
Eccentricity: 0.0001607
inclination: 98.1845°
perigee height: 696 km
apogee height: 699 km
right ascension of ascending node: 9.3149°
argument of perigee: 80.7267°
revolutions per day: 14.58573270
mean anomaly at epoch: 279.4146°
orbit number at epoch: 15175

The dashed part of the orbit path shows where the satellite is in the earth's shadow,  

DLR